Theta_e
289 289 288 287 287 286 285 284 282 281 280 280 279 278 278 279 279 280 280 280 281 281 281 281 282 282 282 282 282 282 282 281 281 281 281 281 281 281 280 281 282 282
288 288 287 286 286 285 285 284 281 280 279 278 278 278 278 278 278 278 279 279 279 279 280 280 281 281 281 281 281 280 280 280 280 281 280 280 279 279 279 279 280 281
287 287 286 285 285 284 283 282 280 279 278 278 278 278 278 279 278 278 278 278 278 278 279 279 279 279 280 280 279 279 279 279 278 279 278 278 278 278 278 278 279 279
286 286 286 285 284 283 282 281 279 279 279 278 278 278 278 278 278 278 278 278 278 278 278 278 278 278 278 278 278 278 278 278 278 278 277 277 277 277 277 277 277 277
284 284 284 283 283 283 282 280 279 278 278 278 278 278 278 278 278 277 277 277 277 277 277 277 278 278 278 278 278 277 277 277 277 277 276 275 276 276 276 275 274 274
283 283 283 283 282 282 281 280 279 278 277 277 277 277 278 278 277 277 277 276 276 276 276 276 276 277 277 276 276 276 276 276 276 276 274 274 274 274 274 274 273 271
282 282 282 282 282 281 280 279 279 279 278 278 277 276 276 276 276 276 275 275 275 275 275 275 275 275 275 275 274 274 274 274 275 275 274 273 273 272 272 272 271 270
282 282 282 281 281 280 280 279 278 278 277 277 275 275 275 275 275 275 274 274 274 274 274 274 274 274 274 274 274 273 273 274 274 273 273 272 272 271 271 271 271 270
281 281 281 280 279 278 278 277 277 276 276 274 274 274 274 274 274 274 274 273 273 273 273 273 273 273 274 274 273 273 273 273 273 273 272 271 270 270 269 270 270 269
279 279 279 278 277 277 276 276 275 275 275 274 274 274 273 274 274 274 273 273 273 273 273 273 273 273 273 273 273 273 273 272 272 272 271 271 270 269 269 269 269 269
278 278 277 276 275 275 274 274 274 274 274 273 273 273 273 273 273 273 273 272 272 272 272 273 273 273 272 272 273 273 272 272 272 271 271 270 270 270 270 270 270 269
276 276 275 275 274 274 274 274 273 273 273 273 273 272 272 272 272 272 272 272 272 272 272 272 272 272 272 272 272 272 272 272 272 271 271 270 271 271 271 271 270 269
275 275 274 274 273 273 273 273 272 272 272 272 272 272 272 271 272 272 272 272 272 272 272 272 272 272 271 271 271 271 271 271 271 271 271 271 271 271 271 271 270 270
274 274 273 273 273 272 272 272 272 272 272 272 272 271 271 271 271 271 271 271 271 271 271 272 271 271 271 271 271 270 270 270 271 271 271 271 271 271 271 270 270 270
273 272 272 272 271 271 271 271 271 271 271 271 271 271 271 271 271 271 271 270 271 271 271 271 271 270 270 270 270 270 270 270 270 270 271 270 270 271 271 271 270 269
272 271 271 271 271 270 270 271 271 271 270 270 271 271 271 271 271 271 271 270 270 270 271 270 269 268 269 271 271 270 270 270 270 270 270 270 270 269 270 270 269 269
271 270 270 270 270 270 270 270 270 270 270 270 270 270 270 271 271 270 270 270 270 269 269 269 268 268 270 272 272 273 271 271 271 271 270 270 269 269 268 269 269 270
270 270 269 269 270 270 270 270 270 270 270 270 270 270 270 270 270 269 269 269 269 269 269 268 267 269 272 272 272 273 272 271 271 270 270 270 269 269 269 269 269 269
270 269 269 269 269 270 270 270 270 270 269 269 269 270 269 269 269 269 268 268 268 268 268 267 267 269 271 272 272 272 273 271 270 270 270 270 270 269 268 267 267 266
270 269 269 269 270 270 270 270 270 269 269 269 269 269 269 268 268 268 268 268 268 268 267 267 266 267 270 271 272 272 272 272 269 269 269 268 268 267 267 266 265 264
269 269 269 269 269 270 270 270 269 269 269 269 269 268 268 267 267 267 267 267 267 267 267 266 266 267 269 270 271 271 271 271 269 268 268 267 267 266 265 264 264 264
269 269 269 269 269 270 269 269 269 269 268 269 269 268 269 268 267 267 266 266 266 266 266 265 266 267 268 269 270 270 271 268 267 267 266 266 265 265 265 265 265 264
270 269 269 269 269 269 269 268 268 268 268 269 268 268 267 267 267 266 266 266 265 265 265 266 265 267 268 268 269 270 269 266 266 266 265 266 265 265 265 265 265 264
270 269 269 269 269 268 268 268 268 268 268 268 268 267 267 267 267 266 266 266 265 265 265 265 265 266 266 267 268 269 267 264 264 264 264 265 264 265 265 265 265 267
270 270 270 269 269 268 268 268 268 267 268 269 268 268 267 267 267 266 266 266 266 265 266 265 265 265 266 266 267 268 267 264 264 263 263 264 264 264 263 264 264 266
270 270 270 269 269 268 268 268 268 267 268 268 268 267 267 266 266 266 265 265 265 264 264 264 263 264 265 265 266 267 268 264 263 262 262 261 261 261 261 261 261 261
Wind_Speed
5 6 7 7 7 7 9 9 8 8 8 7 7 6 7 6 6 7 7 7 7 8 7 7 7 7 8 8 8 9 8 9 8 7 7 7 6 7 8 8 8 7
7 7 6 7 7 7 8 8 8 8 9 8 8 8 7 7 7 7 7 8 8 8 7 7 6 7 8 8 8 9 8 8 9 5 7 7 5 6 8 8 7 7
8 8 9 9 9 10 10 9 9 9 9 9 8 7 8 7 8 7 7 8 9 9 8 7 7 7 7 7 8 8 8 9 9 7 7 6 5 6 6 6 6 7
6 7 8 9 10 11 10 11 10 10 9 9 8 8 7 8 8 9 8 8 9 9 7 7 7 7 8 8 8 9 9 9 7 7 7 6 6 6 6 6 6 7
6 6 7 8 8 9 10 11 11 10 10 10 9 8 8 8 8 9 9 9 8 8 7 6 6 7 8 8 8 8 8 8 7 6 6 6 5 6 5 6 6 7
5 6 7 7 8 9 9 10 11 11 11 11 10 8 8 8 8 8 9 9 8 8 7 6 7 7 7 8 8 8 7 7 6 7 7 7 6 5 5 5 6 7
7 7 8 7 8 8 10 10 11 10 10 10 10 8 8 8 9 9 9 9 9 8 7 6 6 6 6 7 9 9 8 7 6 6 7 6 6 6 5 5 6 6
8 6 7 8 9 9 10 9 9 9 10 10 11 9 9 10 10 9 8 9 9 8 8 7 7 8 7 8 9 9 8 5 6 6 7 6 5 6 5 4 5 6
8 8 8 10 9 8 9 9 9 10 9 10 10 10 9 9 10 9 9 9 8 8 7 7 7 8 8 8 8 8 7 6 5 5 5 6 6 5 4 4 5 5
8 8 10 10 10 8 10 9 9 8 9 11 10 9 10 9 9 9 9 9 8 8 7 7 8 8 9 8 8 7 7 6 5 5 5 5 5 4 4 3 4 5
7 8 9 10 10 9 11 10 10 9 9 10 10 9 8 9 8 8 9 8 8 7 7 7 7 8 9 8 7 7 6 6 5 5 4 4 4 4 4 4 4 4
7 8 10 11 12 11 11 10 10 10 10 9 10 11 9 8 9 7 8 8 7 7 7 7 7 8 8 8 7 6 5 4 4 4 4 3 3 3 4 4 4 4
7 8 10 11 11 12 12 12 11 11 10 10 9 11 11 10 9 9 7 8 7 7 7 7 8 8 8 7 7 6 5 4 4 4 3 3 3 3 3 3 4 4
7 8 10 11 12 12 12 12 11 10 10 9 9 10 10 10 10 9 7 7 7 7 6 7 8 8 7 6 6 5 5 4 3 3 3 3 3 2 2 2 2 2
8 8 10 10 12 10 9 10 10 10 10 9 9 9 8 8 8 9 9 8 6 6 7 6 7 6 5 6 6 5 4 4 4 3 3 3 2 2 1 2 1 2
9 9 10 10 8 7 8 7 7 8 10 10 9 9 8 8 8 7 7 8 8 7 6 6 5 4 6 9 7 5 4 4 4 3 3 3 2 2 1 1 2 1
10 10 7 7 6 7 6 7 8 7 10 10 9 8 8 7 7 8 7 6 6 7 6 6 5 4 9 8 9 8 4 3 4 4 4 3 3 3 2 2 2 3
10 10 7 8 6 7 7 7 7 9 8 9 9 9 7 7 7 7 6 5 5 6 6 5 5 6 8 8 8 8 7 4 3 3 3 4 3 3 3 2 2 2
11 12 7 6 6 6 7 7 6 8 9 9 8 7 7 8 6 6 6 5 5 6 6 5 4 6 7 8 7 7 7 5 2 3 2 2 2 3 2 1 0 1
11 11 8 7 7 7 8 10 10 8 7 7 7 6 6 7 6 6 5 4 4 5 5 5 4 5 6 7 7 7 6 5 2 2 2 1 1 1 2 2 1 2
11 10 9 8 8 9 9 7 7 7 7 5 5 6 6 6 6 6 5 4 4 4 5 5 4 6 6 6 7 7 6 5 3 3 3 2 2 2 3 2 1 1
13 10 10 9 9 10 10 9 8 7 7 6 6 6 5 5 5 4 5 5 4 4 5 4 4 6 6 6 6 6 6 2 3 3 3 3 2 2 2 3 3 3
13 12 9 9 10 10 10 10 9 7 6 5 6 5 5 4 5 4 4 4 5 4 5 4 4 5 6 6 5 6 4 2 2 2 3 4 4 3 3 4 4 4
11 12 12 11 10 10 10 8 7 6 5 5 6 6 5 5 5 4 4 4 4 4 4 5 5 6 7 6 6 6 5 3 1 2 2 3 3 3 4 4 5 8
11 11 11 10 10 9 9 9 8 6 5 5 5 5 5 4 4 4 4 3 4 4 6 5 5 6 8 6 6 7 6 3 3 2 3 3 4 4 3 4 4 6
10 10 9 9 10 9 8 8 7 7 6 5 5 4 4 3 4 4 5 5 4 4 4 4 5 4 6 8 7 8 8 5 4 4 4 4 3 3 3 3 3 4
Wind_Direction
123 127 131 128 124 125 126 125 122 116 111 109 109 102 92 88 83 86 88 91 90 91 86 82 83 88 89 85 82 82 81 83 82 76 71 66 59 57 59 56 61 70
129 126 120 116 116 117 118 116 115 112 110 107 106 104 96 91 82 85 89 86 80 74 68 69 72 82 87 87 87 88 84 80 79 73 86 78 68 60 62 56 58 71
137 132 133 136 135 128 122 114 109 108 109 109 106 105 106 99 98 93 88 86 84 77 73 70 68 68 76 82 84 85 84 81 79 72 69 69 64 68 59 55 56 66
123 129 134 133 131 129 124 117 114 113 113 111 110 109 107 107 107 104 97 93 92 88 85 81 82 82 84 86 88 84 83 79 80 81 82 70 62 66 61 57 56 64
119 117 117 120 123 122 122 123 123 121 116 113 108 106 108 111 111 107 105 100 97 95 89 89 91 95 97 94 90 88 79 80 76 81 83 77 58 63 64 64 62 62
87 94 101 111 118 123 121 117 118 119 118 116 116 115 113 112 107 103 101 101 94 91 88 80 78 74 77 81 81 79 81 82 83 87 83 80 72 58 68 72 77 73
104 103 102 102 104 107 111 115 118 119 120 120 117 109 108 105 103 102 98 96 96 94 95 93 90 88 83 87 85 84 77 76 75 81 89 86 88 79 70 79 84 83
112 105 104 109 110 110 113 116 116 116 118 114 109 105 104 103 101 99 99 99 99 101 99 97 92 91 90 88 89 89 87 89 91 93 96 97 92 90 83 85 89 89
113 112 112 111 108 106 108 107 108 110 109 109 108 109 105 107 109 106 104 101 98 99 99 94 92 92 90 89 88 92 94 88 87 92 97 101 96 94 91 87 93 93
114 116 114 115 112 114 113 111 112 109 111 107 107 107 107 103 101 102 99 99 98 96 95 98 96 94 90 87 91 92 92 94 96 98 97 101 107 110 102 96 104 109
123 124 124 123 122 124 121 121 119 114 110 111 111 104 101 102 95 95 99 101 102 103 103 100 96 94 91 88 86 87 95 101 100 99 101 102 106 110 115 112 105 108
124 124 124 96 95 111 127 126 121 118 116 111 113 111 104 99 102 98 103 104 102 102 101 99 95 91 88 86 86 88 91 97 104 107 106 111 113 116 120 128 127 130
121 118 112 89 88 93 85 97 111 115 113 111 110 109 109 108 102 100 98 102 102 105 105 105 101 96 95 97 98 97 100 105 102 98 107 112 117 127 139 138 146 142
113 118 98 104 93 86 80 74 74 106 106 105 107 106 108 110 112 110 106 102 106 107 106 102 100 96 94 95 99 105 108 101 103 115 113 116 122 126 125 132 128 135
115 116 92 116 115 95 101 100 107 107 106 107 105 104 104 105 108 112 115 112 108 108 107 101 95 90 95 113 118 118 114 116 120 120 128 126 123 122 113 117 132 160
121 125 120 124 110 105 102 96 95 103 109 106 105 106 108 111 113 111 113 119 119 116 108 100 92 87 110 117 122 124 134 139 142 146 139 141 126 131 137 157 174 168
127 131 121 114 109 100 90 91 98 98 111 109 108 108 109 111 111 111 112 116 118 118 111 101 103 119 136 139 140 140 139 139 150 157 152 154 155 161 183 183 190 175
133 129 112 118 109 108 105 94 95 102 98 113 117 115 112 107 103 104 106 109 114 116 113 112 114 140 139 136 140 143 146 160 162 160 160 168 164 173 177 178 172 159
137 137 116 113 101 101 104 102 92 106 114 119 116 112 112 109 108 113 115 114 120 120 116 119 121 137 140 140 145 151 152 145 168 155 151 171 167 151 138 107 74 53
139 137 117 111 105 100 105 115 117 114 108 112 112 111 107 109 111 112 112 112 121 127 121 118 122 144 145 145 146 152 153 151 131 117 124 102 100 126 135 160 172 193
137 124 119 121 116 121 125 110 102 100 104 109 112 113 117 122 127 122 118 118 123 129 130 128 138 155 155 152 153 155 160 153 158 159 161 174 175 170 184 177 193 196
144 133 131 134 134 135 132 129 122 124 121 122 116 113 113 115 110 114 131 136 132 132 133 137 152 162 160 160 162 161 159 152 157 169 174 181 184 178 178 189 193 205
146 143 135 136 139 136 133 134 131 120 118 122 116 118 122 125 130 142 146 143 147 151 147 143 149 168 167 167 170 169 151 151 173 157 180 188 203 204 201 204 206 205
145 145 140 142 142 141 137 129 124 114 114 130 129 135 137 141 139 138 144 152 156 157 163 155 156 171 172 175 174 178 156 157 164 178 212 204 207 197 191 200 200 211
140 143 144 142 139 137 136 133 131 125 124 122 121 119 123 129 139 145 151 157 165 161 164 160 155 169 179 183 185 187 168 148 181 199 215 220 207 216 206 193 217 220
143 141 139 139 136 130 129 125 122 124 128 122 117 122 131 141 147 153 160 160 157 158 174 175 173 178 185 190 192 194 186 168 183 190 217 224 222 210 237 255 225 226